Meteo pe oră la Almyakovo

Astăzi, 28 Ianuarie, Joi

Timp Temperatura Precipitaţii Vânt Presiune Umiditate
00:00 -30°C° 0 mm 2 m/s 759 mmHg 94%
01:00 -31°C° 0 mm 2 m/s 760 mmHg 95%
02:00 -32°C° 0 mm 2 m/s 760 mmHg 95%
03:00 -35°C° 0 mm 2 m/s 760 mmHg 95%
04:00 -35°C° 0 mm 2 m/s 761 mmHg 94%
05:00 -35°C° 0 mm 2 m/s 762 mmHg 94%
06:00 -33°C° 0 mm 1 m/s 762 mmHg 95%
07:00 -32°C° 0 mm 1 m/s 762 mmHg 94%
08:00 -32°C° 0 mm 1 m/s 763 mmHg 93%
09:00 -32°C° 0 mm 1 m/s 763 mmHg 92%
10:00 -30°C° 0 mm 1 m/s 763 mmHg 89%
11:00 -28°C° 0 mm 0 m/s 763 mmHg 87%
12:00 -27°C° 0 mm 0 m/s 763 mmHg 85%
13:00 -26°C° 0.1 mm 0 m/s 763 mmHg 88%
14:00 -27°C° 0.1 mm 1 m/s 762 mmHg 92%
15:00 -25°C° 0.1 mm 1 m/s 762 mmHg 96%
16:00 -25°C° 0.3 mm 1 m/s 761 mmHg 96%
17:00 -28°C° 0.3 mm 2 m/s 761 mmHg 97%
18:00 -28°C° 0.3 mm 2 m/s 761 mmHg 98%
19:00 -28°C° 0.3 mm 2 m/s 760 mmHg 98%
20:00 -29°C° 0.3 mm 3 m/s 759 mmHg 98%
21:00 -29°C° 0.3 mm 3 m/s 758 mmHg 98%
22:00 -29°C° 0.4 mm 3 m/s 757 mmHg 98%
23:00 -27°C° 0.4 mm 3 m/s 756 mmHg 98%

Mâine, 29 Ianuarie, Vineri

Timp Temperatura Precipitaţii Vânt Presiune Umiditate
00:00 -27°C° 0.4 mm 3 m/s 756 mmHg 98%
01:00 -26°C° 0.5 mm 3 m/s 754 mmHg 98%
02:00 -26°C° 0.5 mm 3 m/s 753 mmHg 98%
03:00 -25°C° 0.5 mm 3 m/s 752 mmHg 98%
04:00 -21°C° 0.5 mm 2 m/s 752 mmHg 97%
05:00 -20°C° 0.5 mm 2 m/s 751 mmHg 97%
06:00 -16°C° 0.5 mm 1 m/s 750 mmHg 97%
07:00 -17°C° 0.7 mm 2 m/s 750 mmHg 97%
08:00 -15°C° 0.7 mm 2 m/s 750 mmHg 97%
09:00 -14°C° 0.7 mm 2 m/s 750 mmHg 96%
10:00 -14°C° 0.2 mm 2 m/s 751 mmHg 96%
11:00 -14°C° 0.2 mm 2 m/s 752 mmHg 95%
12:00 -14°C° 0.2 mm 2 m/s 752 mmHg 94%
13:00 -13°C° 0.1 mm 2 m/s 752 mmHg 94%
14:00 -13°C° 0.1 mm 2 m/s 753 mmHg 94%
15:00 -13°C° 0.1 mm 2 m/s 753 mmHg 94%
16:00 -14°C° 0.1 mm 2 m/s 754 mmHg 95%
17:00 -14°C° 0.1 mm 2 m/s 754 mmHg 95%
18:00 -15°C° 0.1 mm 2 m/s 755 mmHg 96%
19:00 -15°C° 0.2 mm 2 m/s 755 mmHg 95%
20:00 -15°C° 0.2 mm 2 m/s 755 mmHg 95%
21:00 -15°C° 0.2 mm 2 m/s 755 mmHg 95%
22:00 -16°C° 0.1 mm 2 m/s 756 mmHg 95%
23:00 -18°C° 0.1 mm 2 m/s 756 mmHg 94%

Poimâine, 30 Ianuarie, Sâmbătă

Timp Temperatura Precipitaţii Vânt Presiune Umiditate
00:00 -21°C° 0.1 mm 3 m/s 757 mmHg 94%
01:00 -23°C° 0 mm 3 m/s 758 mmHg 95%
02:00 -24°C° 0 mm 2 m/s 758 mmHg 96%
03:00 -26°C° 0 mm 2 m/s 759 mmHg 96%
04:00 -28°C° 0 mm 2 m/s 760 mmHg 96%
05:00 -30°C° 0 mm 2 m/s 761 mmHg 95%
06:00 -31°C° 0 mm 2 m/s 762 mmHg 95%
07:00 -34°C° 0 mm 2 m/s 762 mmHg 95%
08:00 -35°C° 0 mm 2 m/s 763 mmHg 95%
09:00 -36°C° 0 mm 2 m/s 764 mmHg 96%
10:00 -35°C° 0 mm 2 m/s 765 mmHg 95%
11:00 -34°C° 0 mm 2 m/s 765 mmHg 93%
12:00 -32°C° 0 mm 2 m/s 766 mmHg 92%
13:00 -29°C° 0 mm 1 m/s 766 mmHg 92%
14:00 -29°C° 0 mm 1 m/s 767 mmHg 92%
15:00 -28°C° 0 mm 1 m/s 768 mmHg 92%
16:00 -30°C° 0 mm 1 m/s 768 mmHg 93%
17:00 -31°C° 0 mm 1 m/s 769 mmHg 94%
18:00 -33°C° 0 mm 1 m/s 770 mmHg 95%
19:00 -33°C° 0 mm 1 m/s 770 mmHg 95%
20:00 -34°C° 0 mm 1 m/s 770 mmHg 95%
21:00 -34°C° 0 mm 1 m/s 771 mmHg 94%
22:00 -34°C° 0 mm 1 m/s 771 mmHg 94%
23:00 -34°C° 0 mm 1 m/s 771 mmHg 94%

31 Ianuarie, Duminică

Timp Temperatura Precipitaţii Vânt Presiune Umiditate
00:00 -37°C° 0 mm 2 m/s 771 mmHg 94%
01:00 -37°C° 0 mm 2 m/s 771 mmHg 94%
02:00 -37°C° 0 mm 2 m/s 771 mmHg 94%
03:00 -37°C° 0 mm 2 m/s 771 mmHg 94%
04:00 -36°C° 0 mm 2 m/s 771 mmHg 93%
05:00 -35°C° 0 mm 2 m/s 771 mmHg 92%
06:00 -34°C° 0 mm 2 m/s 771 mmHg 91%
07:00 -35°C° 0 mm 3 m/s 770 mmHg 91%
08:00 -34°C° 0 mm 3 m/s 770 mmHg 91%
09:00 -34°C° 0 mm 3 m/s 769 mmHg 91%
10:00 -33°C° 0 mm 3 m/s 769 mmHg 91%
11:00 -32°C° 0 mm 3 m/s 768 mmHg 91%
12:00 -31°C° 0 mm 3 m/s 768 mmHg 91%
13:00 -30°C° 0 mm 3 m/s 767 mmHg 91%
14:00 -30°C° 0 mm 3 m/s 767 mmHg 91%
15:00 -29°C° 0 mm 3 m/s 766 mmHg 92%
16:00 -29°C° 0 mm 3 m/s 766 mmHg 92%
17:00 -29°C° 0 mm 3 m/s 765 mmHg 92%
18:00 -29°C° 0 mm 3 m/s 765 mmHg 92%
19:00 -29°C° 0 mm 3 m/s 764 mmHg 92%
20:00 -27°C° 0 mm 2 m/s 763 mmHg 92%
21:00 -26°C° 0 mm 2 m/s 763 mmHg 92%
22:00 -26°C° 0 mm 2 m/s 762 mmHg 92%
23:00 -26°C° 0 mm 2 m/s 761 mmHg 92%

1 Februarie, Luni

Timp Temperatura Precipitaţii Vânt Presiune Umiditate
00:00 -26°C° 0 mm 2 m/s 761 mmHg 92%
01:00 -26°C° 0 mm 2 m/s 760 mmHg 92%
02:00 -26°C° 0 mm 2 m/s 760 mmHg 92%
03:00 -27°C° 0 mm 2 m/s 759 mmHg 93%
04:00 -26°C° 0 mm 2 m/s 759 mmHg 92%
05:00 -26°C° 0 mm 2 m/s 758 mmHg 92%
06:00 -26°C° 0 mm 2 m/s 758 mmHg 91%
07:00 -26°C° 0 mm 2 m/s 757 mmHg 91%
08:00 -23°C° 0 mm 1 m/s 757 mmHg 91%
09:00 -22°C° 0 mm 1 m/s 757 mmHg 91%
10:00 -21°C° 0 mm 1 m/s 756 mmHg 88%
11:00 -19°C° 0 mm 1 m/s 756 mmHg 85%
12:00 -17°C° 0 mm 1 m/s 756 mmHg 83%
13:00 -16°C° 0 mm 1 m/s 756 mmHg 84%
14:00 -15°C° 0 mm 0 m/s 756 mmHg 85%
15:00 -15°C° 0 mm 0 m/s 756 mmHg 87%
16:00 -16°C° 0 mm 0 m/s 756 mmHg 89%
17:00 -17°C° 0 mm 0 m/s 756 mmHg 92%
18:00 -18°C° 0 mm 0 m/s 757 mmHg 94%
19:00 -18°C° 0 mm 0 m/s 757 mmHg 95%
20:00 -19°C° 0 mm 0 m/s 757 mmHg 95%
21:00 -19°C° 0 mm 0 m/s 757 mmHg 96%
22:00 -19°C° 0 mm 0 m/s 757 mmHg 96%
23:00 -20°C° 0 mm 0 m/s 757 mmHg 97%

2 Februarie, Marţi

Timp Temperatura Precipitaţii Vânt Presiune Umiditate
00:00 -20°C° 0 mm 0 m/s 757 mmHg 97%
01:00 -20°C° 0 mm 0 m/s 757 mmHg 98%
02:00 -20°C° 0 mm 0 m/s 757 mmHg 98%
03:00 -20°C° 0 mm 1 m/s 757 mmHg 98%
04:00 -20°C° 0 mm 1 m/s 757 mmHg 97%
05:00 -19°C° 0 mm 1 m/s 756 mmHg 97%
06:00 -18°C° 0 mm 1 m/s 756 mmHg 97%
07:00 -20°C° 0 mm 2 m/s 755 mmHg 96%
08:00 -19°C° 0 mm 2 m/s 755 mmHg 96%
09:00 -18°C° 0 mm 2 m/s 754 mmHg 96%
10:00 -18°C° 0 mm 3 m/s 754 mmHg 94%
11:00 -16°C° 0 mm 3 m/s 753 mmHg 93%
12:00 -16°C° 0 mm 4 m/s 752 mmHg 91%
13:00 -16°C° 0.2 mm 4 m/s 752 mmHg 92%
14:00 -15°C° 0.2 mm 4 m/s 751 mmHg 92%
15:00 -15°C° 0.2 mm 4 m/s 750 mmHg 93%
16:00 -15°C° 0.2 mm 4 m/s 750 mmHg 93%
17:00 -15°C° 0.2 mm 4 m/s 750 mmHg 93%
18:00 -15°C° 0.2 mm 4 m/s 750 mmHg 94%
19:00 -15°C° 0.2 mm 4 m/s 750 mmHg 93%
20:00 -14°C° 0.2 mm 4 m/s 750 mmHg 93%
21:00 -13°C° 0.2 mm 3 m/s 750 mmHg 93%
22:00 -12°C° 0.1 mm 3 m/s 751 mmHg 93%
23:00 -12°C° 0.1 mm 3 m/s 751 mmHg 93%
Arată mai mult

Formular de consimțământ

Meteoprog și furnizorii noștri de servicii pot stoca și accesa date personale, precum cookies, identificatori de dispozitiv sau alte tehnologii similare pe dispozitivul dumneavoastră și procesa astfel de date pentru a personaliza conținutul și reclamele, dar și pentru a oferi caracteristici de social media și pentru a analiza traficul.

  • Stocarea și/sau accesarea informațiilor pe dispozitivul dumneavoastră

    Cookies, identificatori de dispozitiv sau alte informații pot fi stocate sau accesate pe dispozitiv în scopurile indicate mai sus.

  • Reclame și conținut personalizat, evaluarea reclamelor și a conținutului, informații despre audiențe și dezvoltarea produselor

    Reclamele și conținutul pot fi personalizate pe baza unui profil. Pot fi adăugate date suplimentare pentru a personaliza mai bine reclamele și conținutul. Performanța reclamelor și conținutului poate fi măsurată. Pot fi obținute informații despre utilizatorii care au văzut reclamele și conținutul. Aceste date pot fi utilizate pentru a dezvolta sau îmbunătăți experiența utilizatorilor, sistemele și software-ul.

Dând clic pe ‘Sunt de acord’, permiteți utilizarea cookie-urilor menționate, a identificatorilor de dispozitiv, balizelor web sau altor tehnologii similare. Setările pot fi modificate din browser-ul dispozitivului dumneavoastră.

În anumite scopuri, interesele legitime pot prima asupra consimțământului. Puteți citi mai multe informații în acest sens în Politica privind Confidențialitatea Datelor și Cookie.